Preview of NWS' New Version of Forecast
This preview is not operational and should not be used for support decisions.
Latest weather observations around

Bedford, Hanscom Field (KBED)

Using English Units (Switch to International System of Units)
Date/ Time (EDT) Wind (mph) Vis. (mi) Weather Sky Cond. Temp (°F) Rel. Humidity Wind Chill (°F) Heat Index (°F) Pressure Precip. (in)
Air Dwpt 6 hour Altimeter (inHg) Sea level (inHg) 1 hr 3 hr 6 hr
Max Min
Apr 26 09:56 E 8 4 Light Rain and Fog/Mist OVC006 49 46     90% 45   29.87 29.91 0    
Apr 26 08:56 E 6 4 Light Rain and Fog/Mist BKN006 OVC036 48 45     89% 45   29.92 29.96 0    
Apr 26 07:56 E 9 6 Light Rain and Fog/Mist BKN008 OVC055 48 44     86% 44   29.91 29.95 0   0
Apr 26 07:21 ESE 7 6 Light Rain and Fog/Mist BKN008 OVC055 49 45     86% 46   29.91   0    
Apr 26 06:56 E 7 10 Light Rain OVC060 49 45     86% 46   29.9 29.94 0    
Apr 26 05:56 ESE 5 10 Light Rain BKN065 OVC090 50 43     77%     29.91 29.95 0    
Apr 26 04:56 SE 3 10 Cloudy OVC070 49 43     80% 48   29.9 29.94      
Apr 26 03:56 ENE 5 10 Cloudy OVC080 48 42     80% 46   29.9 29.94      
Apr 26 02:56 Calm 10 Clear CLR 47 41     80%     29.91 29.95      
Apr 26 01:56 ESE 6 10 Clear CLR 48 41     77% 45   29.92 29.96      
Apr 26 00:56 S 5 10 Clear CLR 48 41     77% 46   29.94 29.98      
Apr 25 23:56 S 6 10 Clear CLR 50 41     71%     29.94 29.98      
Apr 25 22:56 SSE 3 10 Clear   50 41     71%     29.94 29.98      
Apr 25 21:56 Calm 10 Clear CLR 50 40     68%     29.95 29.98      
Apr 25 20:56 ESE 5 10 Partly Cloudy SCT250 51 41     68%     29.94 29.98      
Apr 25 19:56 ESE 6 10 Partly Cloudy SCT250 52 40     63%     29.92 29.96      
Apr 25 18:56 E 7 10 Partly Cloudy SCT250 53 40     61%     29.92 29.95      
Apr 25 17:56 ESE 13 10 Partly Cloudy SCT250 56 39     53%     29.91 29.95      
Apr 25 16:56 ESE 16 10 Partly Cloudy SCT250 57 39     51%     29.9 29.94      
Apr 25 15:56 ESE 15 10 Mostly Clear FEW040 60 40     47%     29.9 29.94      
Apr 25 14:56 SE 11 10 Mostly Clear FEW040 64 40     41%     29.9 29.94      
Apr 25 13:56 NNE 6 10 Clear CLR 63 39     41%     29.9 29.94      
Apr 25 12:56 WSW 6 10 Clear CLR 60 39     46%     29.92 29.96      
Apr 25 11:56 S 3 10 Clear CLR 57 37     47%     29.93 29.97      
Apr 25 10:56 3 10 Clear CLR 56 37     49%     29.95 29.98      
Apr 25 09:56 3 10 Mostly Clear FEW030 54 37     53%     29.95 29.99      
Apr 25 08:56 NNW 7 10 Clear CLR 52 37     57%     29.95 29.99      
Apr 25 07:56 W 7 10 Clear CLR 49 37     63% 46   29.95 29.99      
Apr 25 06:56 WSW 6 10 Clear CLR 44 37     76% 41   29.93 29.96      
Apr 25 05:56 SW 3 10 Clear CLR 41 36     82% 39   29.9 29.93      
Apr 25 04:56 WSW 3 10 Clear CLR 42 35     76% 40   29.89 29.93      
Apr 25 03:56 W 7 10 Clear CLR 43 36     76% 39   29.89 29.93      
Apr 25 02:56 W 7 10 Clear CLR 44 37     76% 40   29.89 29.93      
Apr 25 01:56 WSW 6 10 Clear CLR 45 36     71% 42   29.88 29.91      
Apr 25 00:56 W 7 10 Clear CLR 46 37     71% 42   29.88 29.92      
Apr 24 23:56 W 6 10 Clear CLR 48 36     63% 45   29.87 29.9      
Apr 24 22:56 W 8 10 Clear CLR 50 37     61%     29.85 29.89      
Apr 24 21:56 W 9 10 Mostly Cloudy BKN050 52 37     57%     29.85 29.88      
Apr 24 20:56 NW 9 10 Mostly Cloudy BKN050 55 37     51%     29.83 29.87      
Apr 24 19:56 NW 8 10 Mostly Cloudy BKN050 56 38     51%     29.79 29.83      
Apr 24 18:56 WNW 14 10 Cloudy OVC050 59 38     45%     29.76 29.8      
Apr 24 17:56 WNW 14 10 Mostly Cloudy BKN055 61 40     46%     29.73 29.77      
Apr 24 16:56 WNW 15 10 Mostly Cloudy BKN055 62 40     44%     29.71 29.75      
Apr 24 15:56 W 16 10 Partly Cloudy SCT055 64 40     41%     29.69 29.72      
Apr 24 14:56 NW 13 10 Clear CLR 65 41     42%     29.68 29.71      
Apr 24 13:56 WNW 15 10 Clear CLR 65 41     42%     29.67 29.71      
Apr 24 12:56 W 11 10 Mostly Clear FEW049 63 41     45%     29.67 29.71      
Apr 24 11:56 W 16 10 Clear CLR 63 42     46%     29.67 29.7      
Apr 24 10:56 WNW 8 10 Mostly Cloudy FEW015 SCT030 BKN039 59 47     64%     29.68 29.71      
Apr 24 09:56 WNW 7 10 Cloudy SCT006 BKN012 OVC033 54 50     86%     29.68 29.71      
Apr 24 09:37 W 7 7 Cloudy OVC006 54 50     86%     29.67        
Apr 24 08:56 WNW 5 1 Fog/Mist OVC004 52 49     89%     29.67 29.71      
Apr 24 08:37 W 6 1 Fog/Mist OVC004 52 49     89%     29.67        
Apr 24 08:25 W 5 2 Fog/Mist OVC005 52 49     89%     29.67        
Apr 24 08:03 WSW 5 4 Fog/Mist OVC005 51 49     92%     29.67        
Apr 24 07:56 WSW 5 1 Fog/Mist OVC005 51 49     92%     29.67 29.71     0
Apr 24 07:36 SW 5 1 Fog/Mist OVC004 51 48     89%     29.67        
Apr 24 06:56 Calm 6 Fog/Mist OVC004 51 48     89%     29.67 29.7      
Apr 24 06:06 Calm 8 Cloudy OVC004 50 48     93%     29.67        
Apr 24 05:56 Calm 9 Cloudy OVC005 50 48     93%     29.67 29.7      
Apr 24 04:56 Calm 10 Cloudy OVC005 50 48     93%     29.68 29.71   0  
Apr 24 04:11 S 3 9 Cloudy OVC005 50 47     89%     29.69        
Apr 24 03:56 S 3 8 Cloudy OVC004 50 47     89%     29.7 29.73      
Apr 24 02:56 SSE 5 8 Cloudy OVC004 49 47     93% 47   29.72 29.76 0    
Apr 24 02:03 5 8 Light Rain OVC004 48 46     93% 46   29.74   0    
Apr 24 01:56 ESE 6 7 Light Rain OVC005 48 46     93% 45   29.73 29.77 0   0
Apr 24 01:07 ESE 7 5 Light Rain and Fog/Mist OVC005 47 45     93% 44   29.78   0    
Apr 24 00:56 ESE 7 4 Rain and Fog/Mist OVC004 47 45     93% 44   29.78 29.82 0    
Apr 24 00:44 ESE 8 3 Light Rain and Fog/Mist OVC005 47 44     90% 43   29.8   0    
Apr 24 00:36 SE 7 2.5 Rain and Fog/Mist OVC005 47 44     90% 44   29.81   0    
Apr 23 23:56 ESE 7 8 Cloudy OVC006 47 44     90% 44   29.83 29.87 0    
Apr 23 22:56 ESE 9 10 Light Rain OVC009 47 42     83% 43   29.84 29.88 0 0  
Apr 23 22:46 ESE 5 10 Cloudy OVC009 47 42     83% 45   29.84        
Apr 23 21:56 E 8 10 Cloudy OVC011 47 41     80% 43   29.85 29.89      
Apr 23 20:56 E 11 10 Cloudy BKN013 OVC022 47 41     80% 42   29.87 29.91      
Apr 23 19:56 ESE 11 10 Cloudy BKN010 OVC015 48 42     80% 43   29.87 29.91      
Apr 23 18:56 SE 14 10 Mostly Cloudy BKN012 50 44     80%     29.87 29.91      
Apr 23 17:56 ESE 11 10 Mostly Clear FEW015 53 45     74%     29.87 29.91      
Apr 23 16:56 ESE 9 10 Mostly Cloudy BKN031 56 47     72%     29.88 29.92      
Apr 23 16:54 SE 9 10 Mostly Cloudy BKN031 55 46     72%     29.88        
Apr 23 15:56 Calm 10 Cloudy OVC024 59 48     67%     29.88 29.91      
Apr 23 14:56 E 5 10 Cloudy OVC023 58 48     70%     29.89 29.93      
Apr 23 13:56 E 3 10 Cloudy OVC021 57 48     72%     29.91 29.95     0
Apr 23 13:03 N 6 10 Cloudy OVC017 57 49     74%     29.93        
Apr 23 12:56 NW 7 10 Cloudy OVC014 56 48     75%     29.93 29.97      
Apr 23 12:30 NNW 7 10 Cloudy OVC014 54 47     77%     29.94        
Apr 23 12:20 NW 6 10 Cloudy OVC016 55 48     77%     29.94        
Apr 23 11:56 3 10 Cloudy OVC012 55 48     77%     29.95 29.98      
Apr 23 11:03 NNE 10 10 Cloudy OVC011 53 48     83%     29.96        
Apr 23 10:56 N 6 2 Haze OVC012 53 48     83%     29.96 30   0  
Apr 23 09:56 NNE 9 2 Fog/Mist OVC012 52 48     86%     29.96 30 0    
Apr 23 09:51 NNE 10 2 Fog/Mist OVC012 52 48     87%     29.96   0    
Apr 23 09:10 N 9 2 Fog/Mist OVC007 52 48     86%     29.96        
Apr 23 09:03 N 8 10 Cloudy OVC013 52 48     86%     29.96        
Apr 23 08:56 N 9 2 Fog/Mist OVC007 52 48     86%     29.96 30      
May 14 11:56 7 10 Cloudy OVC027 62 51     67%     29.97 30.01      
May 14 05:56 Calm 10 Clear   50 47     89%     30 30.04      
May 13 01:34 NNW 5 8 Mostly Cloudy BKN006 46 45     96% 44   30.12        
May 12 16:56 NNW 5 3 Light Rain and Fog/Mist OVC005 48 47     96% 46   30.11 30.15 0 0  
Jun 11 22:56 SW 6 10 Clear CLR 78 61     56%   78 29.91 29.94      
Jun 11 12:56 WSW 8 10 Clear CLR 83 58     43%   83 29.94 29.97      
Jun 10 08:56 SW 6 10 Clear CLR 73 53     50%   72 29.95 29.98      
Jun 09 09:56 W 7 10 Partly Cloudy SCT150 70 44     39%     29.64 29.67      
Jun 09 03:56 Calm 10 Clear   55 47     74%     29.71 29.74      
Jun 08 11:56 5 10 Clear CLR 77 47     35%   76 30 30.03      
Jun 07 16:56 ESE 8 10 Mostly Clear FEW040 70 44     39%     29.94 29.98      
Jun 07 11:56 NE 9 10 Clear CLR 66 50     56%     29.95 29.99      
Jun 06 08:48 NE 11 2 Fog/Mist OVC004 49 47     93% 44   29.82   0    
Notice The following observation data may not be complete
Jun 06 08:03   1.75 Fog/Mist BKN010 OVC014          %         0    
Jun 06 05:56 NE 16 1.5 Fog/Mist OVC009 49 46     90% 43   29.8 29.84 0    
Notice The following observation data may not be complete
Jun 06 03:56   6 Light Rain and Fog/Mist OVC010          %         0    
Jun 05 14:56 ENE 10 1.25 Fog/Mist VV004 56 53     90%     29.85 29.88